Home   Weather   Serekunda   Past weeks

Flag for Gambia Past Weather in Serekunda, Gambia — Yesterday and Last 2 Weeks

Now
77 °F

Scattered clouds.


Feels Like: 78 °F
Forecast: 78 / 86 °F
Wind: 2 mph from North

Location: Banjul / Yundum

Current Time: Aug 31, 2016 at 8:10:47 AM

Latest Report: Aug 31, 2016 at 7:00 AM


Visibility: N/A

Pressure: 29.92 "Hg

Humidity: 94%

Dew Point: 75 °F

Location of SerekundaLocation

Past Weather in Serekunda — Graph

°F

Serekunda Temperature Yesterday

Maximum temperature yesterday: 88 °F (at 3:00 PM)
Minimum temperature yesterday: 73 °F (at 12:00 AM)
Average temperature yesterday: 79 °F

High & Low Weather Summary for the Past Weeks

 TemperatureHumidityPressure
High91 °F (Aug 18, 4:00 PM)100% (Aug 16, 6:00 PM)30.01 "Hg (Aug 16, 6:00 PM)
Low68 °F (Aug 29, 11:00 AM)24% (Aug 19, 12:00 AM)29.74 "Hg (Aug 25, 5:00 PM)
Average81 °F85%29.86 "Hg
* Reported Aug 16 7:00 AM — Aug 31 7:00 AM, Serekunda, Weather by CustomWeather, © 2016

Note: Actual official high and low records may vary slightly from our data, if they occured in-between our weather recording intervals... More about our weather records

Advertising

Serekunda Weather History for the Previous 24 Hours

Scroll right to see more
 ConditionsComfort  
Time TempWeatherWind HumidityBarometerVisibility
7:00 AM
Wed, Aug 31
77 °FScattered clouds.2 mph94%29.92 "HgN/A
6:00 AM77 °FPassing clouds.3 mph94%29.89 "HgN/A
5:00 AM77 °FPartly cloudy.2 mph94%29.89 "HgN/A
4:00 AM77 °FPartly cloudy.2 mph94%29.89 "Hg6 mi
3:00 AM77 °FPassing clouds.3 mph89%29.92 "Hg6 mi
2:00 AM77 °FPassing clouds.3 mph89%29.92 "Hg6 mi
1:00 AM77 °FPassing clouds.3 mph89%29.92 "HgN/A
12:00 AM79 °FWarm.6 mph89%29.92 "HgN/A
11:00 PM
Tue, Aug 30
79 °FWarm.6 mph89%29.92 "HgN/A
10:00 PM79 °FWarm.No wind89%29.92 "HgN/A
9:00 PM81 °FWarm.6 mph84%29.89 "HgN/A
8:00 PM81 °FWarm.6 mph79%29.86 "HgN/A
7:00 PM84 °FBroken clouds.8 mph74%29.86 "HgN/A
6:00 PM86 °FBroken clouds.6 mph75%29.86 "HgN/A
5:00 PM84 °FBroken clouds.7 mph74%29.86 "HgN/A
4:00 PM88 °FWarm.N/A66%29.86 "HgN/A
3:00 PM88 °FScattered clouds.6 mph59%29.86 "HgN/A
2:00 PM84 °FScattered clouds.6 mph79%29.86 "HgN/A
1:00 PM86 °FBroken clouds.3 mph75%29.89 "HgN/A
12:00 PM86 °FBroken clouds.3 mph70%29.89 "Hg6 mi
11:00 AM79 °FBroken clouds.2 mph89%29.89 "HgN/A
10:00 AM75 °FRain. Broken clouds.5 mph94%29.89 "HgN/A
9:00 AM75 °FLight rain. Broken clouds.7 mph94%29.89 "Hg6 mi
8:00 AM73 °FLight rain. Broken clouds.7 mph100%29.86 "Hg6 mi
Weather by CustomWeather, © 2016

See weather overviewHow to use our weather pages